Wind_Speed
5 5 5 4 5 4 2 3 4 4 4 3 4 4 3 3 2 1 1 2 1 1 0 1 0 1 1 2 2 2 2 2 2 2 3 2 2 3 3 3 3 3 2
6 6 6 5 5 6 5 5 5 4 4 3 4 4 4 3 2 1 1 1 1 1 1 1 1 1 1 1 2 2 1 2 1 2 2 2 2 3 3 3 3 3 3
7 7 6 6 6 6 6 6 5 4 3 3 4 4 4 4 3 3 2 1 1 2 2 2 2 1 1 1 1 1 1 1 1 1 2 1 2 2 2 2 2 3 2
8 7 6 6 6 6 6 6 5 4 4 4 4 3 4 3 3 3 2 2 3 2 2 2 2 2 1 1 1 1 2 1 1 1 1 1 2 2 2 2 2 2 2
8 7 6 6 7 6 5 6 5 5 4 4 4 4 4 3 3 3 2 2 1 2 2 2 2 2 2 1 0 0 1 1 1 1 1 1 1 1 1 1 1 3 3
7 6 6 6 6 6 7 6 6 5 4 4 4 4 4 3 3 2 1 1 1 1 2 2 2 3 3 2 1 1 1 1 1 2 2 2 1 1 2 1 2 3 3
7 7 7 6 6 6 6 6 6 5 5 4 3 3 3 3 2 2 2 1 1 1 1 2 3 3 2 2 2 2 1 1 1 2 2 1 1 2 2 2 2 3 3
7 7 7 7 7 6 6 5 5 5 5 4 4 3 3 3 2 2 2 2 2 2 1 2 2 2 2 2 2 2 2 2 2 2 2 2 2 2 3 3 3 3 4
6 7 7 7 7 6 5 5 5 6 5 5 5 4 3 2 2 2 2 2 2 2 2 2 2 3 3 2 2 2 3 2 3 2 3 3 2 3 4 4 4 4 4
7 6 6 6 6 6 6 6 5 5 5 5 5 4 4 2 2 2 2 2 1 2 2 2 3 3 3 2 2 2 3 2 3 3 3 3 4 4 5 5 5 4 5
6 6 6 6 6 6 6 5 5 5 5 4 4 4 3 3 3 3 3 2 2 2 2 3 3 4 3 3 3 3 3 3 3 3 4 5 5 5 5 4 5 5 5
6 6 6 6 6 6 6 5 5 5 4 4 4 3 4 3 3 4 4 3 3 3 3 3 4 4 4 4 4 4 5 4 4 4 5 5 5 5 5 6 6 6 6
6 6 6 5 6 6 6 6 5 5 4 4 4 3 3 3 3 4 5 4 4 3 4 4 4 4 4 4 5 6 5 5 4 4 4 5 5 5 6 7 7 7 7
6 5 5 5 6 6 6 5 5 5 5 5 4 4 3 3 3 4 5 5 5 5 4 4 5 5 5 5 6 6 6 5 5 5 5 6 6 7 7 8 8 9 9
6 5 5 5 6 6 6 6 5 5 5 4 4 3 3 4 4 4 5 5 6 6 6 5 6 6 7 7 7 7 7 6 6 6 6 8 8 8 8 9 9 10 10
7 6 5 5 6 6 6 6 5 5 5 4 4 4 4 4 4 4 5 6 7 7 7 6 6 7 7 8 8 8 8 7 8 8 8 9 9 9 9 10 10 10 11
7 6 6 5 5 5 5 5 5 4 4 4 4 5 5 4 4 4 5 6 7 8 8 7 7 8 8 8 8 9 8 9 8 8 9 9 9 9 9 10 10 11 11
8 7 7 6 6 5 5 5 5 5 5 5 5 5 4 5 5 5 6 6 7 8 9 9 8 8 8 9 9 9 9 8 8 8 9 10 10 10 10 11 12 12 12
9 8 8 8 6 6 6 5 5 6 5 5 5 4 5 5 5 6 6 7 8 9 10 9 9 9 9 10 10 10 10 10 10 10 10 10 10 11 11 11 12 13 13
9 8 8 8 7 6 7 7 6 6 6 5 5 5 6 6 7 8 8 9 9 10 10 10 10 11 11 11 12 12 12 12 12 12 12 12 11 12 12 12 13 13 14
9 8 8 7 7 7 7 7 7 7 6 6 6 7 7 8 9 9 10 10 10 11 11 12 12 12 12 12 13 13 13 14 14 13 13 13 13 13 14 14 15 15 15
8 8 8 7 6 7 7 7 8 8 8 8 8 8 8 9 10 11 11 11 12 12 12 13 13 13 13 13 13 13 14 14 15 15 15 15 15 15 16 16 16 16 15
9 8 8 7 7 7 8 8 9 9 9 9 9 9 10 10 11 11 12 12 13 13 14 14 14 14 15 15 15 14 14 14 15 16 17 17 16 16 17 17 17 17 17
9 8 8 8 8 8 9 9 9 9 9 9 9 10 11 11 11 12 12 12 13 14 15 15 15 15 15 16 16 16 15 16 16 16 17 17 17 17 17 18 18 18 18
10 9 9 9 10 9 10 10 10 10 10 10 11 11 12 13 12 12 12 13 13 14 15 15 16 16 16 17 17 17 17 18 18 18 18 18 18 18 18 18 18 19 19
10 10 9 10 11 11 10 11 10 10 11 11 12 12 12 12 12 13 14 14 15 15 16 16 17 17 18 18 18 19 20 20 20 19 19 19 19 18 19 19 20 20 21
Wind_Direction
48 47 48 51 43 43 123 145 150 156 161 154 155 162 159 156 150 147 116 41 56 66 53 36 4 216 215 178 170 162 187 199 187 188 188 181 180 188 179 175 178 190 188
45 48 53 56 56 64 95 127 137 149 158 157 162 160 159 151 142 139 115 41 59 75 58 22 15 256 236 210 165 128 161 212 193 188 199 205 187 185 183 175 182 196 197
46 51 59 64 71 80 95 114 126 128 142 153 162 155 149 141 133 130 127 80 73 78 68 41 16 5 313 285 251 204 163 179 177 146 139 158 193 199 199 197 195 207 197
53 56 63 68 75 88 100 105 104 104 117 126 139 142 142 131 126 122 118 103 75 58 54 29 5 358 356 318 303 218 179 166 163 160 144 156 184 190 183 190 192 200 204
55 57 66 75 77 81 93 100 95 89 99 106 110 121 127 122 118 125 119 104 72 53 43 20 13 18 37 22 16 335 222 190 188 200 186 187 186 198 190 209 236 227 234
55 58 66 75 79 79 86 97 90 90 93 96 106 120 120 120 114 110 98 96 66 42 35 18 21 31 47 44 2 333 323 222 216 232 218 217 224 207 218 226 239 251 248
54 58 63 73 79 79 85 86 82 83 83 88 103 114 121 116 102 94 82 85 62 25 19 14 4 16 15 21 0 343 331 238 232 245 231 230 240 243 244 249 259 270 259
56 58 62 68 77 81 80 75 68 72 75 84 87 86 107 116 95 77 60 58 47 37 17 16 8 9 2 356 340 313 306 261 234 231 240 244 255 254 256 257 267 282 278
56 58 62 65 71 76 72 66 64 65 67 74 72 67 81 99 90 70 54 44 32 26 14 19 22 15 12 4 338 302 297 263 243 234 239 263 276 278 273 269 268 281 286
55 54 53 59 65 65 67 68 68 66 69 69 60 56 60 59 55 35 32 32 17 1 4 358 359 4 354 5 340 316 303 280 261 251 260 272 271 277 278 273 273 277 280
52 52 53 59 61 59 57 61 66 64 66 65 50 47 49 47 34 15 10 7 3 343 339 338 336 335 337 337 330 318 305 292 280 277 283 278 269 269 275 279 282 278 275
59 57 54 54 53 51 53 54 57 55 54 53 40 45 47 48 28 11 3 355 345 337 333 325 316 317 328 332 328 319 308 303 292 283 293 285 275 276 280 284 286 282 277
56 58 54 53 52 49 49 47 50 43 42 42 44 53 49 43 23 7 1 350 342 336 327 318 314 308 319 323 319 314 310 309 298 285 287 285 274 277 277 278 286 284 282
50 45 43 47 48 43 43 45 49 41 39 36 48 39 34 27 10 6 358 351 346 342 329 320 319 315 307 304 305 304 310 304 295 290 284 282 276 276 273 273 278 279 279
42 41 39 48 46 44 43 43 41 33 31 26 25 16 14 7 0 357 354 349 347 344 336 328 322 320 321 312 307 303 304 304 303 291 290 286 281 277 275 275 274 277 279
36 42 48 51 46 42 40 37 35 26 16 11 13 13 359 351 342 341 351 351 348 348 345 337 326 322 320 321 314 305 304 305 307 299 292 289 290 286 282 277 275 281 280
35 41 46 43 37 33 27 22 19 12 4 357 355 350 351 343 342 341 344 342 339 340 342 335 327 325 321 318 315 310 303 298 303 302 296 294 295 296 293 284 278 278 280
33 37 37 31 31 30 26 19 11 3 354 347 345 347 347 339 336 336 336 334 331 331 328 328 323 323 321 317 315 313 311 309 307 305 300 299 297 295 293 286 279 276 276
28 28 22 22 29 24 18 9 0 359 350 336 336 339 330 321 317 318 318 318 320 320 320 319 313 309 308 307 307 306 305 301 299 300 300 300 298 295 292 288 280 275 275
23 22 18 20 22 16 11 8 359 354 348 336 329 324 320 316 311 309 307 307 310 314 316 316 312 309 304 301 301 301 299 294 293 295 295 295 294 290 288 287 282 276 276
12 13 12 13 12 8 1 360 356 348 343 339 331 320 311 308 307 305 305 304 304 307 310 311 310 307 305 301 299 298 298 293 290 291 291 290 286 287 287 284 284 282 275
6 6 5 3 0 353 349 347 343 335 327 324 326 319 308 305 301 300 301 302 300 302 305 306 306 304 304 303 298 294 294 292 292 292 291 291 287 284 283 283 285 287 279
352 355 357 352 347 343 338 334 328 324 326 326 323 320 310 306 304 301 300 298 298 299 299 300 302 302 302 301 299 297 296 292 289 289 289 288 288 285 279 280 282 286 283
339 341 342 337 333 331 326 320 326 324 322 318 317 315 313 307 303 302 299 300 300 299 296 296 298 299 299 298 296 297 299 296 293 289 288 286 285 284 282 281 282 283 282
332 333 334 330 324 323 322 319 317 318 313 313 311 311 312 310 305 303 301 302 302 302 300 299 298 297 296 295 293 294 297 299 295 290 289 286 286 284 280 280 281 281 279
328 325 321 324 321 319 319 318 316 315 314 314 314 311 309 307 305 303 299 297 299 300 299 299 298 296 296 298 297 297 297 297 295 293 292 288 286 285 280 280 281 283 282
Height
5891 5890 5889 5888 5886 5883 5881 5884 5888 5890 5891 5891 5892 5893 5894 5894 5895 5895 5894 5894 5894 5894 5893 5893 5893 5892 5892 5892 5891 5891 5891 5891 5891 5890 5890 5891 5891 5891 5891 5891 5891 5891 5891
5891 5890 5890 5889 5887 5884 5882 5885 5888 5890 5891 5892 5893 5893 5894 5894 5895 5894 5894 5894 5894 5894 5893 5893 5892 5892 5892 5891 5891 5891 5891 5891 5891 5891 5891 5891 5891 5891 5891 5891 5891 5891 5891
5892 5891 5891 5890 5889 5888 5887 5888 5890 5891 5892 5893 5893 5893 5894 5894 5894 5894 5894 5894 5894 5894 5893 5893 5892 5892 5892 5891 5891 5891 5891 5891 5891 5891 5890 5891 5891 5891 5891 5891 5891 5891 5891
5893 5892 5892 5891 5891 5890 5890 5890 5891 5892 5892 5893 5893 5893 5894 5894 5894 5894 5894 5894 5894 5894 5894 5893 5893 5892 5891 5891 5891 5890 5890 5890 5890 5890 5890 5891 5891 5891 5891 5891 5890 5890 5890
5894 5893 5893 5893 5892 5892 5892 5892 5892 5893 5893 5893 5893 5894 5894 5895 5895 5895 5895 5894 5894 5894 5893 5893 5893 5892 5891 5891 5891 5890 5890 5890 5890 5890 5890 5890 5891 5891 5890 5890 5890 5890 5890
5895 5894 5894 5893 5893 5893 5893 5893 5893 5894 5894 5894 5894 5894 5894 5895 5895 5895 5895 5894 5894 5894 5894 5893 5893 5892 5891 5891 5891 5890 5890 5890 5890 5890 5890 5890 5890 5890 5890 5890 5890 5889 5889
5896 5895 5895 5894 5894 5894 5894 5894 5894 5894 5894 5894 5894 5894 5895 5895 5895 5895 5895 5895 5895 5894 5894 5893 5893 5892 5892 5891 5891 5890 5890 5890 5890 5890 5890 5890 5890 5889 5889 5889 5888 5888 5888
5897 5896 5896 5896 5895 5895 5895 5895 5895 5895 5895 5894 5895 5895 5895 5895 5895 5895 5895 5895 5895 5894 5894 5893 5893 5892 5892 5891 5890 5890 5890 5889 5889 5889 5889 5889 5889 5889 5888 5888 5887 5887 5887
5898 5897 5897 5897 5897 5896 5896 5896 5896 5896 5895 5895 5895 5895 5895 5895 5895 5895 5895 5895 5894 5894 5894 5893 5892 5892 5891 5890 5890 5889 5889 5888 5888 5888 5888 5888 5888 5888 5887 5887 5886 5886 5886
5899 5898 5898 5898 5898 5897 5897 5897 5897 5897 5897 5896 5896 5896 5896 5896 5896 5895 5895 5895 5894 5894 5893 5893 5892 5892 5891 5890 5889 5889 5888 5887 5887 5887 5887 5886 5886 5886 5886 5885 5885 5885 5884
5900 5899 5899 5899 5898 5898 5898 5898 5897 5897 5897 5897 5897 5896 5896 5896 5896 5896 5895 5895 5894 5893 5893 5892 5892 5891 5890 5890 5888 5888 5887 5887 5886 5886 5885 5885 5885 5884 5884 5883 5883 5883 5883
5900 5900 5900 5899 5899 5898 5898 5898 5898 5898 5898 5897 5897 5897 5897 5897 5896 5895 5895 5894 5894 5893 5892 5891 5891 5890 5890 5889 5888 5887 5886 5885 5885 5884 5884 5883 5883 5882 5882 5882 5881 5881 5881
5901 5901 5901 5900 5899 5899 5898 5898 5898 5898 5898 5897 5897 5897 5897 5896 5896 5895 5894 5894 5893 5892 5892 5891 5890 5889 5889 5888 5887 5886 5885 5884 5883 5883 5883 5882 5881 5881 5880 5880 5880 5879 5879
5901 5901 5901 5900 5900 5899 5898 5898 5898 5898 5897 5897 5897 5897 5896 5896 5896 5895 5894 5893 5893 5892 5891 5890 5889 5888 5888 5887 5885 5884 5883 5882 5882 5881 5881 5880 5879 5879 5879 5878 5878 5877 5877
5901 5901 5900 5900 5900 5899 5899 5898 5898 5898 5897 5897 5897 5896 5896 5896 5895 5895 5894 5893 5892 5891 5890 5889 5888 5887 5886 5885 5884 5882 5881 5880 5879 5879 5879 5878 5877 5877 5876 5876 5876 5875 5874
5901 5901 5900 5900 5900 5899 5899 5898 5898 5898 5897 5897 5896 5896 5895 5895 5894 5894 5893 5892 5891 5890 5889 5888 5887 5886 5885 5884 5883 5881 5880 5879 5878 5878 5877 5876 5875 5874 5874 5873 5873 5872 5872
5901 5900 5900 5900 5899 5899 5898 5898 5898 5897 5897 5896 5896 5895 5895 5894 5893 5893 5892 5891 5890 5889 5888 5887 5885 5884 5883 5882 5881 5880 5879 5878 5877 5876 5875 5874 5873 5872 5871 5870 5870 5869 5868
5901 5900 5900 5899 5899 5899 5898 5898 5897 5896 5896 5895 5895 5894 5894 5893 5892 5892 5891 5890 5889 5887 5886 5885 5884 5883 5882 5880 5879 5878 5877 5876 5875 5874 5873 5871 5870 5869 5868 5867 5866 5866 5865
5902 5901 5900 5899 5898 5898 5898 5897 5896 5895 5894 5894 5894 5893 5892 5891 5891 5890 5889 5888 5887 5886 5885 5883 5882 5881 5880 5878 5877 5876 5875 5873 5872 5871 5870 5869 5867 5866 5865 5864 5862 5862 5860
5902 5901 5900 5899 5898 5898 5897 5896 5895 5894 5893 5893 5892 5891 5890 5889 5889 5888 5887 5886 5885 5884 5882 5881 5879 5878 5877 5876 5874 5873 5872 5870 5869 5868 5867 5866 5864 5863 5862 5860 5859 5858 5857
5902 5902 5900 5899 5898 5897 5896 5895 5894 5893 5893 5892 5891 5890 5889 5887 5886 5885 5884 5883 5882 5881 5879 5878 5877 5875 5874 5873 5871 5870 5869 5867 5866 5865 5864 5862 5861 5859 5858 5857 5855 5854 5852
5902 5901 5900 5899 5898 5897 5895 5894 5893 5892 5891 5890 5889 5888 5886 5885 5884 5883 5881 5880 5879 5878 5876 5875 5874 5872 5871 5869 5868 5867 5866 5864 5862 5860 5859 5858 5856 5855 5853 5852 5851 5849 5848
5902 5900 5899 5898 5896 5895 5894 5893 5891 5890 5888 5888 5886 5885 5884 5882 5881 5880 5878 5877 5876 5875 5873 5872 5870 5869 5867 5865 5864 5863 5861 5860 5858 5857 5855 5853 5852 5850 5849 5848 5846 5844 5843
5901 5899 5898 5896 5895 5893 5892 5891 5889 5888 5886 5885 5884 5883 5881 5880 5878 5876 5875 5874 5872 5871 5869 5868 5866 5864 5863 5861 5859 5858 5856 5855 5853 5852 5851 5848 5847 5845 5844 5843 5841 5840 5839
5899 5897 5896 5894 5893 5891 5890 5888 5887 5886 5884 5883 5882 5880 5878 5877 5875 5873 5872 5870 5869 5867 5865 5864 5862 5860 5858 5857 5855 5853 5852 5850 5848 5847 5846 5844 5841 5840 5839 5837 5836 5835 5834
5896 5895 5893 5891 5890 5889 5888 5886 5885 5883 5882 5880 5879 5877 5875 5873 5872 5870 5868 5866 5865 5863 5861 5859 5857 5856 5854 5852 5850 5848 5846 5845 5843 5841 5840 5838 5836 5835 5833 5832 5830 5829 5828